Regional Weather Roundup
Issued by NWS Wilmington, NC

Home | Current Version | Previous Version | Text Only | Print | Product List | Glossary On
Versions: 1 2 3 4 5 6 7 8 9 10 11 12 13 14 15 16 17 18 19 20 21 22 23 24 25 26 27 28 29 30 31 32 33 34 35 36 37 38 39 40 41 42 43 44 45 46 47 48 49 50
000
ASUS42 KILM 230710
RWRILM
RWRILM
REGIONAL HOURLY WEATHER ROUNDUP
NATIONAL WEATHER SERVICE WILMINGTON NC
300 AM EDT TUE SEP 23 2014

NOTE: "FAIR" INDICATES FEW OR NO CLOUDS BELOW 12,000 FEET WITH NO
SIGNIFICANT WEATHER AND/OR OBSTRUCTIONS TO VISIBILITY.

...............WFO WILMINGTON COUNTY WARNING AREA...............

......COASTAL NC AND SC COUNTIES......

CITY           SKY/WX    TMP DP  RH WIND       PRES   REMARKS
WILMINGTON     CLOUDY    66  62  87 NE9       30.09F
SOUTHPORT      CLOUDY    64  61  90 N7        30.08F
N MYRTLE BEACH CLOUDY    65  62  90 N7        30.09F
MYRTLE BEACH   CLOUDY    66  61  82 N9        30.08F

......INLAND NC AND SC COUNTIES.......

CITY           SKY/WX    TMP DP  RH WIND       PRES   REMARKS
LUMBERTON      CLOUDY    65  61  87 NE6       30.12F
ELIZABETHTOWN  CLOUDY    65  59  81 CALM      30.12F
WHITEVILLE     CLOUDY    64  60  85 CALM      30.11F
FLORENCE       CLOUDY    65  61  87 CALM      30.11F
DARLINGTON     CLOUDY    64  61  88 N6        30.13F

....................REST OF NORTH CAROLINA......................

.........EASTERN NC.........

CITY           SKY/WX    TMP DP  RH WIND       PRES   REMARKS
CAPE HATTERAS  CLOUDY    68  60  75 NE10G18   30.13S
JACKSONVILLE   CLOUDY    64  57  77 N6        30.13S
MOREHEAD CITY  CLOUDY    71  62  73 NE7       30.11F
KENANSVILLE    CLOUDY    64  57  77 CALM      30.14F
NEW BERN       CLOUDY    69  61  75 NE8       30.15S
ELIZABETH CITY CLOUDY    65  57  75 N9        30.18R

.........CENTRAL NC.........

CITY           SKY/WX    TMP DP  RH WIND       PRES   REMARKS
RALEIGH DURHAM CLOUDY    63  52  67 NE14G20   30.18R
ROCKY MOUNT    CLOUDY    65  57  75 NE7       30.17R
ROANOKE RAPIDS NOT AVBL
FAYETTEVILLE   CLOUDY    64  62  93 N5        30.13F
HOFFMAN        NOT AVBL

.........WESTERN NC.........

CITY           SKY/WX    TMP DP  RH WIND       PRES   REMARKS
CHARLOTTE      CLOUDY    62  49  62 N9        30.18S
GREENSBORO     CLOUDY    59  50  72 N8        30.19S
HICKORY        NOT AVBL
BOONE          NOT AVBL
ASHEVILLE      NOT AVBL

.....................REST OF SOUTH CAROLINA.....................

.........EASTERN SC.........

CITY           SKY/WX    TMP DP  RH WIND       PRES   REMARKS
CHARLESTON     CLOUDY    68  63  84 NE10      30.07F
BEAUFORT MCAS  CLOUDY    68  64  87 MISG      30.03F
HILTON HEAD    NOT AVBL

.........CENTRAL SC.........

CITY           SKY/WX    TMP DP  RH WIND       PRES   REMARKS
COLUMBIA       CLOUDY    65  62  90 CALM      30.12R
ORANGEBURG     LGT RAIN  64  61  90 N5        30.10R
SUMTER SHAW    CLOUDY    63  60  90 E9        30.08F

.........WESTERN SC.........

CITY           SKY/WX    TMP DP  RH WIND       PRES   REMARKS
GREENVILLE     NOT AVBL
ROCK HILL      CLOUDY    63  53  70 NE7       30.16F
ANDERSON       CLEAR     60  56  86 NE3       30.14F
CLEMSON        NOT AVBL
GREENWOOD      MOCLDY    63  58  83 NE5       30.14F


...................COASTAL AND OFFSHORE REPORTS..................

................LOCAL PIERS AND NC RESERVE................


STATION/POSITION TIME  SKY/WX   TEMP    WIND        PRES    VSBY
                                AIR SEA DIR/SP/G
                 (UTC)          (F)     (DEG/KT/KT) (MB)    (MI)
JOHNY MRCER PIER 0700            69 80   10/ 13/ 15 1018.4F
NC RESRV MASNBRO 0600            67      10/  3     1019.0S
OCEAN CREST PIER 0700            66 78  340/  8/ 12 1017.7F
SPRINGMAID  PIER 0700            66 78  340/  9/ 12 1018.5F


................COASTAL AND OFFSHORE BUOYS................


STATION/POSITION TIME  SKY/WX   TEMP    WIND        PRES    VSBY
                                AIR SEA DIR/SP/G
                 (UTC)          (F)     (DEG/KT/KT) (MB)    (MI)
DIMNDSHOAL 41025 0700            73      20/ 19/ 23 1019.5F
WVE H/P(F/S)=  4/ 6 WND WVE H/P(F/S)=  3/ 6 SWL H/P/D(F/S/D)=  2/ 80/ 8

CAPE LOOKOUT     0600            74      40/ 16/ 17 1019.6R
ONSLOW BAY 41036 0700            76 82   50/ 17/ 21 1018.1F
WVE H/P(F/S)=  4/ 7 WND WVE H/P(F/S)=  3/ 4 SWL H/P/D(F/S/D)=  2/120/ 7

5 WRITEBCH 41038 0600            73 79   70/ 12/ 14   N/A
MASONBORO  41110 0700               79                N/A
WVE H/P(F/S)=  2/ 8 WND WVE H/P(F/S)=  2/ 8

WILM HARBR 41108 0700               79                N/A
WVE H/P(F/S)=  2/ 3 WND WVE H/P(F/S)=  2/ 3

27WRITEBCH 41037 0600            74 80   60/ 16/ 17 1018.5F
FRYING PAN 41013 NOT AVBL
SUNST NRSH 41024 0600            69     340/ 12/ 12 1018.9F
CAPRS NRSH 41029 0600            69      10/ 16/ 19   N/A
EDISTO     41004 0700            78 82   30/ 16/ 17 1016.2F
WVE H/P(F/S)=  3/ 7 WND WVE H/P(F/S)=  3/ 5 SWL H/P/D(F/S/D)=  2/ 7



..........OFFSHORE BUOYS BEYOND 100 NM OFFSHORE...........
.....IN A TRIANGLE---HAT TO BERMUDA TO BAHAMAS TO HAT.....


STATION/POSITION TIME  SKY/WX   TEMP    WIND        PRES    VSBY
                                AIR SEA DIR/SP/G
                 (UTC)          (F)     (DEG/KT/KT) (MB)    (MI)
150E HAT   41001 NOT AVBL
W BERMUDA  41048 0650            80 81  180/  8/ 10 1019.0F
WVE H/P(F/S)=  5/ 7 WND WVE H/P(F/S)=  2/ 4 SWL H/P/D(F/S/D)=  5/260/ 7

ATLANTIC S 41049 0636            83 85  100/ 14/ 16 1018.2F
WVE H/P(F/S)=  6/ 8 WND WVE H/P(F/S)=  3/ 4 SWL H/P/D(F/S/D)=  5/110/ 8

E BAHAMAS  41046 0601            81 84   90/ 12/ 14 1015.2F
WVE H/P(F/S)=  5/ 8 WND WVE H/P(F/S)=  3/ 5 SWL H/P/D(F/S/D)=  5/100/ 8

NE BAHAMAS 41047 0643            82 83  120/ 12/ 16 1017.0F
WVE H/P(F/S)=  4/ 8 WND WVE H/P(F/S)=  2/ 3 SWL H/P/D(F/S/D)=  3/ 30/ 8

120E CANVRL41010 0700            78 84   60/  4/  6 1016.5F
WVE H/P(F/S)=  3/ 8 SWL H/P/D(F/S/D)=  3/ 70/ 8


END


USA.gov is the U.S. government's official web portal to all federal, state and local government web resources and services.